Location: The Saddle
(36.8333°N, 80.3417°W)
Time: 19:47:01
(UTC-05:00)

A-11 Canister half - Pass Details

Date: 11 December 2023
Orbit: 1512 x 1687 km, 47.2° (Epoch: 26 February)

Event Time Altitude Azimuth Distance (km) Brightness Sun altitude
Rises 22:02:20 0° 229° (SW) 4,656 11.8 -58.4°
Enters shadow 22:03:59 - 228° (SW) 4,116 11.4 -58.7°
Reaches altitude 10° 22:05:19 10° 228° (SW) 3,688 - -59.0°
Maximum altitude 22:14:38 79° 143° (SE) 1,586 - -60.7°
Drops below altitude 10° 22:24:19 10° 58° (ENE) 3,825 - -62.5°
Sets 22:27:29 0° 58° (ENE) 4,836 - -63.1°
